sat.trackr.live / text

‹ back to catalog

STARLINK-30820

NORAD 58190 · 2023-167R

PAYLOAD ACTIVE UNKNOWN

§ Identity

Operator
Country
US
Launch date
2023-10-30
Launch site
AFETR
Launch vehicle
Mass (kg)
RCS (m²)

Purposes: comms

External: N2YO · Heavens-Above · Gunter

§ Orbital elements

Epoch: 2026-09-20T23:05:58.479360Z

Period
94.27 min
Inclination
43.0012°
Eccentricity
0.0000903
Mean motion
15.27581612 rev/d
Perigee alt
482.4 km
Apogee alt
483.7 km
Semi-major
6,861.2 km
B*
2.1658e-5
RAAN
120.2463°
Arg perigee
276.1631°
Mean anomaly
83.9118°
Rev number
16,085

§ Raw data

STARLINK-308201 58190U 23167R   26263.96248240  .00000334  00000+0  21658-4 0  99912 58190  43.0012 120.2463 0000903 276.1631  83.9118 15.27581612160859

JSON: /api/v1/satellites/58190 · /tle

For live sub-satellite position, see the globe view (requires WebGL).

§ Visibility from observer

Set your observer location to see the next 7 days of passes ≥ 10°. The values pass through the URL so the page stays shareable.

No JS? Fill the form by hand. The geolocation button needs JavaScript.